Date,TemperatureHighF,TemperatureAvgF,TemperatureLowF,DewpointHighF,DewpointAvgF,DewpointLowF,HumidityHigh,HumidityAvg,HumidityLow,PressureMaxIn,PressureMinIn,WindSpeedMaxMPH,WindSpeedAvgMPH,GustSpeedMaxMPH,PrecipitationSumIn
2013-1-1,23.0,20.4,18.1,13.3,11.1,9.9,70,67,65,29.95,28.12,2,0,4,0.00
2013-1-2,27.1,20.0,15.8,13.0,11.0,9.7,78,68,54,30.13,29.93,7,1,12,0.00
2013-1-3,31.5,20.2,9.3,18.0,11.5,6.1,87,70,42,33.58,30.02,8,2,8,0.00
2013-1-4,32.7,27.9,24.8,20.2,18.2,15.3,80,67,57,33.58,29.95,4,2,11,0.00
2013-1-5,63.3,27.4,22.8,42.8,18.5,15.3,82,69,27,30.27,29.84,5,2,14,0.20
2013-1-6,40.1,32.7,26.8,25.9,22.7,18.9,78,67,50,31.01,29.75,8,2,17,0.00
2013-1-7,38.1,32.0,26.1,28.5,24.6,21.3,83,74,58,30.12,29.85,8,2,20,0.00
2013-1-8,46.8,33.8,25.3,25.6,22.8,20.4,83,65,40,30.13,30.05,6,2,12,0.00
2013-1-9,41.9,37.5,32.4,34.2,28.2,22.9,80,69,58,30.12,29.91,12,2,27,0.00
2013-1-10,38.3,36.7,34.9,24.8,23.4,22.8,62,58,56,30.16,30.05,11,5,27,0.00
2013-1-11,37.6,34.9,32.2,36.5,29.0,22.6,96,80,64,30.22,29.85,10,4,18,0.31
2013-1-12,56.5,41.9,36.9,50.4,40.2,35.8,97,94,75,29.93,29.85,6,2,9,0.04
2013-1-13,46.0,44.1,42.3,45.2,43.4,41.5,100,97,96,29.89,29.75,10,3,15,0.01
2013-1-14,51.4,43.1,32.4,50.4,37.8,24.6,100,83,59,30.05,29.70,11,3,24,0.08
2013-1-15,32.2,28.8,26.2,28.0,22.4,20.3,89,77,67,30.08,29.92,6,1,10,0.01
2013-1-16,31.8,28.8,26.2,30.8,27.4,23.9,97,94,89,29.91,29.61,5,1,13,0.00
2013-1-17,34.5,30.5,28.4,29.8,25.9,23.4,97,83,73,29.85,29.70,8,2,17,0.00
2013-1-18,28.9,21.3,16.5,23.8,10.5,4.8,85,64,41,30.14,29.75,11,4,20,0.00
2013-1-19,46.6,34.2,20.8,25.3,19.5,8.7,78,56,36,30.05,29.62,11,5,24,0.08
2013-1-20,47.3,33.8,18.3,27.0,17.6,7.2,68,53,27,29.80,29.50,14,4,27,0.04
2013-1-21,24.1,18.8,13.8,17.8,10.5,3.1,88,70,55,29.81,29.59,9,2,16,0.00
2013-1-22,13.6,7.3,1.8,3.1,-4.1,-8.0,71,59,44,29.89,29.60,11,5,24,0.00
2013-1-23,13.5,4.7,0.3,1.1,-4.1,-7.2,77,66,49,29.92,29.81,8,3,14,0.00
2013-1-24,17.2,8.1,5.0,5.5,0.8,-3.0,83,71,50,29.99,29.77,11,2,18,0.00
2013-1-25,14.4,8.5,4.5,6.9,2.2,-2.7,87,75,56,30.12,29.73,8,2,17,0.00
2013-1-26,10.2,9.9,9.5,6.9,6.8,6.5,88,87,86,29.76,29.75,4,1,7,0.00
2013-1-27,29.7,19.5,11.5,13.7,9.6,3.7,83,66,48,30.25,30.08,6,2,12,0.00
2013-1-28,36.1,27.3,22.3,35.4,24.0,11.6,97,88,63,30.16,29.77,11,2,18,0.00
2013-1-29,36.1,36.1,36.1,35.4,35.4,35.4,97,97,97,29.82,29.78,0,0,0,0.00
2013-1-30,51.6,51.4,51.3,50.9,50.8,50.7,98,98,98,29.13,29.09,7,4,14,0.81
2013-1-31,52.2,33.8,19.2,51.6,31.3,9.9,98,91,66,29.52,28.92,16,5,30,0.58
2013-2-1,22.3,18.1,12.4,12.9,7.0,1.9,78,62,45,29.93,29.50,14,5,25,0.00
2013-2-2,14.2,11.6,6.3,4.1,3.0,-0.1,77,68,63,29.97,29.91,6,2,14,0.00
2013-2-3,14.0,14.0,14.0,4.1,4.1,4.1,64,64,64,29.91,29.91,2,2,8,0.00
2013-2-4,14.0,14.0,14.0,4.1,4.1,4.1,64,64,64,29.91,29.91,2,2,8,0.00
2013-2-5,14.0,14.0,14.0,4.1,4.1,4.1,64,64,64,29.91,29.91,2,2,8,0.00
2013-2-6,34.5,26.2,20.7,23.0,16.0,7.9,85,66,52,30.38,30.00,9,3,16,0.00
2013-2-7,29.5,23.2,15.6,17.5,11.1,5.7,76,60,50,30.47,30.28,10,3,21,0.00
2013-2-8,30.9,27.2,24.1,28.3,25.0,17.3,94,91,75,30.28,29.82,11,4,23,0.00
2013-2-9,18.7,16.4,14.7,15.5,11.6,9.7,88,81,68,30.46,30.00,14,6,26,2.17
2013-2-10,40.1,25.5,10.4,13.4,6.8,-14.2,85,50,11,30.54,30.33,12,3,24,0.08
2013-2-11,40.3,30.9,28.2,38.8,27.0,12.9,95,86,48,30.33,27.86,12,5,23,0.01
2013-2-12,37.4,31.9,26.6,32.7,22.5,19.6,93,68,55,28.16,27.95,14,4,31,0.00
2013-2-13,32.0,26.8,22.8,28.2,21.5,18.5,94,80,75,28.12,27.88,2,1,5,0.00
2013-2-14,29.7,29.5,29.5,28.2,28.0,28.0,94,94,94,27.97,27.90,2,1,4,0.00
2013-2-16,22.3,21.0,20.1,12.0,9.8,7.4,66,61,57,29.92,27.99,8,5,16,0.00
2013-2-17,24.3,17.1,11.5,12.6,5.2,-1.5,79,60,43,29.90,29.47,14,6,28,0.01
2013-2-18,35.2,20.9,9.3,9.5,5.5,1.2,70,52,29,29.90,29.70,12,4,27,0.00
2013-2-19,32.5,28.6,24.4,26.5,21.4,8.7,91,75,44,29.76,29.36,11,6,24,0.00
2013-2-20,24.4,19.4,15.4,17.1,9.5,6.5,77,65,54,29.68,29.46,14,6,27,0.00
2013-2-21,29.5,20.5,15.6,14.0,11.1,7.6,80,67,51,29.95,29.66,12,6,24,0.00
2013-2-22,27.5,22.2,14.7,23.4,16.8,11.1,89,80,68,30.00,29.84,9,4,21,0.00
2013-2-23,36.1,32.9,26.8,34.6,31.3,23.1,96,94,85,29.85,29.51,10,2,17,0.04
2013-2-24,36.1,33.1,25.5,34.6,28.9,16.3,94,85,63,29.69,29.48,10,3,17,0.01
2013-2-25,42.1,30.2,23.9,25.0,20.9,17.6,80,69,48,29.88,29.69,8,3,16,0.00
2013-2-26,36.5,31.3,26.1,29.9,24.8,19.2,93,77,62,29.89,29.42,12,4,27,0.07
2013-2-27,37.4,34.9,31.6,34.3,32.4,29.9,94,91,85,29.42,29.23,8,1,16,0.20
2013-2-28,38.8,33.2,30.0,32.3,29.0,25.5,93,85,62,29.35,29.27,8,2,13,0.05
2013-3-1,35.8,31.2,26.6,28.4,25.1,19.0,91,78,66,29.51,29.34,8,3,23,0.04
2013-3-2,30.4,25.5,21.9,20.6,19.1,17.8,88,77,64,29.51,29.43,8,4,19,0.00
2013-3-3,28.9,23.5,19.8,19.0,15.8,13.5,87,72,57,29.49,29.41,11,5,23,0.00
2013-3-4,30.7,24.4,19.6,18.6,16.1,11.6,86,70,55,29.64,29.48,12,5,24,0.00
2013-3-5,41.7,30.0,23.2,24.1,20.7,18.0,83,69,48,29.69,29.56,9,3,16,0.00
2013-3-6,38.8,33.5,30.0,28.1,25.4,23.3,81,72,62,29.68,29.47,15,6,29,0.01
2013-3-7,38.3,32.3,27.3,23.7,21.3,17.8,71,64,50,29.80,29.67,14,6,24,0.00
2013-3-8,38.1,29.9,23.5,24.6,20.6,17.5,91,69,55,29.95,29.75,14,7,31,0.00
2013-3-9,53.8,39.1,26.1,23.2,18.7,14.0,73,47,22,30.00,29.92,11,3,17,0.00
2013-3-10,56.3,45.0,37.8,27.2,18.1,11.1,54,34,22,29.98,29.87,10,4,22,0.00
2013-3-11,52.7,43.3,34.3,45.2,34.7,23.1,93,73,43,29.90,29.62,14,5,27,0.00
2013-3-12,50.4,44.2,34.3,47.5,38.1,26.6,93,79,58,29.63,29.46,14,5,31,0.90
2013-3-13,42.4,33.3,25.7,29.4,23.1,12.6,86,67,36,29.62,29.51,11,4,25,0.00
2013-3-14,35.2,27.0,21.6,17.1,11.3,5.4,79,53,34,29.67,29.58,13,6,30,0.00
2013-3-15,41.7,31.8,20.1,28.2,19.8,9.6,74,61,50,29.67,29.43,11,4,22,0.00
2013-3-16,35.8,29.0,25.5,27.7,23.1,17.0,93,79,60,29.58,29.40,8,2,14,0.00
2013-3-17,31.1,27.0,23.5,24.2,18.3,13.5,94,71,56,29.92,29.58,7,2,15,0.00
2013-3-18,27.0,22.3,18.1,16.1,11.3,9.5,72,63,50,29.95,29.83,10,3,17,0.00
2013-3-19,46.8,33.9,26.2,34.9,24.9,12.3,95,72,31,29.56,29.38,11,3,28,0.17
2013-3-20,37.8,29.8,24.1,20.4,15.7,13.1,85,56,38,29.56,29.45,8,4,17,0.00
2013-3-21,29.8,24.3,19.0,17.7,11.4,6.2,74,58,41,29.49,29.35,9,3,16,0.00
2013-3-22,32.4,26.2,20.3,19.7,17.0,12.8,88,68,53,29.59,29.41,9,4,21,0.00
2013-3-23,40.3,30.8,24.4,19.6,17.0,15.0,75,57,39,29.64,29.56,12,5,25,0.00
2013-3-24,42.3,33.4,26.2,19.6,17.2,13.6,67,52,34,29.63,29.34,8,3,18,0.00
2013-3-25,34.0,31.0,27.7,29.8,25.9,19.2,94,82,55,29.35,29.20,8,2,16,0.14
2013-3-26,46.2,35.0,28.4,32.7,26.9,22.5,92,74,43,29.60,29.33,11,2,22,0.05
2013-3-27,43.5,35.4,30.2,29.4,25.3,21.2,90,68,43,29.72,29.59,11,3,17,0.01
2013-3-28,41.2,35.0,30.4,30.4,26.0,22.0,89,70,49,29.85,29.67,9,4,20,0.00
2013-3-29,46.2,38.9,33.3,29.9,26.0,22.5,76,60,44,29.86,29.78,9,3,16,0.00
2013-3-30,54.9,42.4,32.5,26.1,19.0,8.2,67,42,17,29.87,29.77,8,2,12,0.00
2013-3-31,45.7,41.7,38.1,40.7,29.9,12.9,94,66,32,29.79,29.42,11,3,24,0.12
2013-4-1,51.4,40.5,27.7,40.3,26.0,5.8,85,58,25,29.61,29.40,12,4,24,0.02
2013-4-2,37.8,29.4,23.2,13.9,9.9,6.1,67,44,27,29.77,29.60,11,4,22,0.00
2013-4-3,38.5,29.9,23.9,15.2,9.6,4.6,61,43,25,29.99,29.75,11,4,23,0.00
2013-4-4,50.5,35.2,22.1,15.7,13.0,10.2,64,42,22,30.03,29.71,10,3,19,0.00
2013-4-5,55.0,41.8,30.9,20.9,15.8,3.7,63,38,13,29.72,29.51,11,4,22,0.00
2013-4-6,52.2,37.5,25.0,18.6,10.6,-3.7,63,37,10,29.98,29.72,11,4,21,0.00
2013-4-7,60.8,47.3,35.1,39.0,29.9,13.9,72,51,34,29.91,29.65,15,6,29,0.00
2013-4-8,73.8,61.1,48.2,46.2,39.8,29.3,71,48,21,29.80,29.67,8,3,18,0.00
2013-4-9,80.1,68.4,59.4,50.0,43.4,33.5,65,43,20,29.77,29.62,11,3,25,0.00
2013-4-10,82.8,69.2,57.6,60.3,52.8,49.0,91,58,36,29.67,29.50,14,3,27,0.45
2013-4-11,57.9,52.4,43.3,55.9,48.6,42.0,95,87,78,29.65,29.53,12,3,19,0.04
2013-4-12,43.3,40.9,38.7,42.0,33.1,30.4,95,74,69,29.59,29.37,14,5,28,0.34
2013-4-13,54.5,44.2,37.9,35.8,31.4,26.9,76,61,42,29.66,29.49,8,3,18,0.00
2013-4-14,56.3,43.3,35.4,31.2,26.6,21.9,67,53,31,29.82,29.65,11,3,18,0.00
2013-4-15,62.1,49.0,41.2,43.0,35.1,27.2,77,59,48,29.97,29.84,11,4,19,0.00
2013-4-16,65.3,53.6,45.9,53.9,47.3,39.8,86,79,66,29.98,29.82,11,5,22,0.00
2013-4-17,68.4,55.4,44.1,54.9,35.8,24.9,92,52,20,29.96,29.83,8,3,14,0.15
2013-4-18,55.4,52.4,50.2,49.3,41.6,30.8,93,68,42,29.95,29.71,14,6,34,0.05
2013-4-19,66.4,60.3,55.4,60.5,51.9,41.1,87,74,56,29.73,29.31,14,6,31,0.14
2013-4-20,50.2,42.0,33.8,38.0,26.8,18.1,82,56,34,30.01,29.47,11,4,21,0.04
2013-4-21,50.4,38.2,27.1,22.8,18.2,14.4,67,46,25,30.23,30.00,11,3,20,0.00
2013-4-22,54.0,42.5,32.5,28.5,25.2,19.0,80,53,31,30.25,30.09,10,3,21,0.00
2013-4-23,61.3,45.1,35.6,40.5,34.3,27.8,86,68,38,30.09,29.80,8,2,15,0.00
2013-4-24,67.6,51.6,39.9,54.2,44.2,33.0,91,77,53,29.81,29.49,12,4,25,0.31
2013-4-25,59.2,45.8,35.2,35.1,26.9,18.2,78,51,21,29.97,29.69,11,3,23,0.00
2013-4-26,59.4,48.5,38.5,34.2,24.2,13.2,79,42,17,30.12,29.96,8,3,15,0.00
2013-4-27,70.9,55.4,42.1,31.0,24.6,17.4,50,32,15,30.11,29.96,7,2,14,0.00
2013-4-28,66.0,56.2,47.3,41.7,33.5,29.2,73,44,27,29.98,29.84,11,4,27,0.00
2013-4-29,52.5,49.8,46.2,48.7,43.6,30.4,93,80,49,29.86,29.78,9,4,21,0.34
2013-4-30,66.9,54.8,47.8,48.8,42.4,27.3,81,64,43,30.00,29.84,8,3,16,0.01
2013-5-1,71.6,57.2,44.8,38.7,22.8,9.9,63,30,11,30.14,30.00,8,3,14,0.00
2013-5-2,73.0,58.7,43.3,41.0,36.8,30.8,79,49,23,30.14,30.03,8,2,15,0.00
2013-5-4,70.5,56.8,39.9,41.0,35.6,30.5,81,48,25,30.03,29.88,8,2,13,0.00
2013-5-5,70.2,54.4,38.7,40.3,32.9,16.5,91,51,14,29.94,29.85,8,3,12,0.00
2013-5-6,70.0,54.5,37.8,51.5,43.7,35.3,94,69,46,29.92,29.82,7,3,12,0.00
2013-5-7,74.1,60.4,46.9,54.2,49.9,45.0,93,71,40,29.84,29.75,8,3,14,0.00
2013-5-8,66.6,56.5,50.4,56.9,52.7,47.2,93,87,67,29.78,29.65,6,2,13,1.51
2013-5-9,66.9,57.4,50.4,55.6,51.0,46.9,92,80,57,29.72,29.64,4,1,8,0.01
2013-5-10,77.0,64.2,54.3,58.0,53.6,48.6,93,71,38,29.75,29.62,7,1,17,0.33
2013-5-11,66.0,59.4,54.0,61.4,54.7,48.3,93,85,68,29.62,29.46,7,2,15,0.30
2013-5-12,55.9,49.8,40.8,48.4,34.7,21.3,85,59,29,29.67,29.45,9,3,21,0.00
2013-5-13,40.8,40.8,40.8,30.0,30.0,30.0,65,65,65,29.67,29.67,4,4,13,0.00
2013-5-14,40.8,40.8,40.8,30.0,30.0,30.0,65,65,65,29.67,29.67,4,4,13,0.00
2013-5-15,40.8,40.8,40.8,30.0,30.0,30.0,65,65,65,29.67,29.67,4,4,13,0.00
2013-5-16,40.8,40.8,40.8,30.0,30.0,30.0,65,65,65,29.67,29.67,4,4,13,0.00
2013-5-17,72.3,54.4,40.8,40.9,34.5,30.0,65,49,25,29.91,29.67,8,3,15,0.00
2013-5-18,66.2,58.1,54.0,51.4,44.5,38.5,91,61,47,29.97,29.91,8,2,17,0.00
2013-5-19,58.3,55.5,53.1,55.0,52.9,51.1,95,91,87,29.96,29.85,5,2,14,0.04
2013-5-20,82.4,66.4,55.9,64.8,58.5,51.5,91,77,53,29.86,29.72,5,1,10,0.01
2013-5-21,89.2,75.2,63.9,67.6,64.4,60.9,92,72,41,29.73,29.59,6,2,17,0.00
2013-5-22,89.4,76.4,63.0,68.9,63.2,54.3,92,68,32,29.66,29.55,8,2,16,0.35
2013-5-23,77.4,66.2,58.6,64.9,60.8,56.4,93,84,62,29.62,29.49,5,1,14,0.28
2013-5-24,59.0,46.9,38.1,57.0,42.9,35.5,93,86,71,29.77,29.46,10,4,26,0.11
2013-5-25,56.7,46.7,37.6,37.3,32.7,28.6,92,61,37,29.80,29.73,11,5,24,0.01
2013-5-26,67.1,52.7,40.6,35.5,31.4,25.5,76,48,23,29.92,29.76,9,3,20,0.00
2013-5-27,72.3,58.1,41.9,43.1,33.7,24.3,67,43,18,29.98,29.88,4,1,10,0.00
2013-5-28,58.5,54.6,51.1,57.2,49.9,41.6,97,85,62,29.91,29.81,5,2,15,0.32
2013-5-29,86.5,71.7,57.2,69.1,61.4,55.5,96,73,47,29.85,29.79,5,2,13,0.01
2013-5-30,90.5,77.9,65.5,62.9,60.1,57.1,76,56,36,29.93,29.84,6,1,9,0.00
2013-5-31,91.9,79.9,68.7,67.5,61.5,54.4,82,56,30,29.89,29.75,7,1,14,0.00
2013-6-1,90.7,78.6,66.4,66.3,62.4,58.2,81,59,37,29.77,29.64,6,1,14,0.00
2013-6-2,84.9,75.0,68.4,66.5,63.7,59.6,86,69,48,29.65,29.54,8,2,16,0.00
2013-6-3,77.0,68.6,56.5,65.1,58.4,41.8,92,71,50,29.67,29.56,6,1,11,0.00
2013-6-4,73.8,59.7,46.8,43.7,40.5,37.5,75,51,29,29.86,29.67,7,2,14,0.00
2013-6-5,78.3,64.3,49.8,47.0,39.8,32.8,55,42,26,29.93,29.78,7,2,11,0.00
2013-6-6,65.3,58.6,55.9,57.2,51.8,46.7,95,79,51,29.83,29.65,10,2,24,0.18
2013-6-7,60.4,59.0,57.2,59.4,57.8,56.1,97,96,91,29.65,29.43,7,2,17,0.15
2013-6-8,73.2,62.0,56.1,62.4,57.6,52.5,100,87,60,29.83,29.44,4,1,13,0.01
2013-6-9,82.4,68.0,54.1,58.3,53.7,48.7,91,64,32,29.93,29.83,5,1,10,0.00
2013-6-10,66.9,63.8,59.5,65.2,61.2,56.7,97,92,76,29.88,29.51,4,1,11,1.38
2013-6-11,74.5,66.6,61.7,65.5,61.7,56.5,97,85,68,29.56,29.47,6,2,16,0.04
2013-6-12,79.9,67.8,59.9,59.6,55.8,53.3,91,67,43,29.63,29.54,5,2,12,0.00
2013-6-13,72.9,62.5,53.4,67.1,58.7,52.0,96,88,69,29.59,29.21,8,2,16,1.44
2013-6-14,73.6,60.5,50.7,59.4,52.4,47.6,95,76,50,29.70,29.36,8,2,19,0.08
2013-6-15,78.4,66.2,54.7,56.8,52.7,48.1,90,64,36,29.79,29.70,5,1,11,0.00
2013-6-16,76.3,67.4,58.3,65.3,55.0,45.7,86,66,38,29.76,29.58,6,1,17,0.00
2013-6-17,85.8,72.6,61.9,64.7,58.5,51.4,93,64,31,29.69,29.62,4,1,13,0.00
2013-6-18,84.2,70.3,61.0,64.5,58.1,51.3,83,66,39,29.68,29.57,5,1,12,0.00
2013-6-19,77.5,64.6,53.8,55.5,48.5,42.4,82,59,31,29.90,29.65,7,2,13,0.00
2013-6-20,80.8,68.1,54.3,58.5,51.9,41.8,72,57,38,29.99,29.89,6,1,12,0.00
2013-6-21,83.5,70.6,56.8,60.4,55.5,51.3,87,61,41,30.03,29.95,6,2,16,0.00
2013-6-22,84.9,71.8,58.1,65.2,59.7,51.5,86,67,44,29.99,29.85,6,2,16,0.00
2013-6-23,89.8,76.8,64.0,68.1,64.5,58.4,95,69,38,29.93,29.79,6,1,13,0.00
2013-6-24,83.3,70.9,65.3,69.5,65.3,62.8,94,83,61,29.86,29.82,3,0,8,0.13
2013-6-25,87.1,75.3,64.8,70.4,65.9,62.4,93,74,51,29.77,29.62,6,1,22,0.06
2013-6-26,82.4,71.5,63.0,67.3,63.7,60.3,93,78,55,29.65,29.58,4,1,8,0.00
2013-6-27,85.8,72.4,65.3,70.4,65.7,63.5,100,81,50,29.59,29.31,5,1,11,0.07
2013-6-28,84.0,69.3,62.8,68.2,64.7,61.9,100,87,54,29.34,29.25,5,1,12,0.00
2013-6-29,83.8,70.5,61.3,66.5,61.5,57.7,100,76,42,29.47,29.26,6,1,14,0.00
2013-6-30,83.5,71.9,62.6,69.7,65.1,60.0,94,80,60,29.65,29.47,5,1,14,0.00
2013-7-1,75.9,70.1,65.8,71.4,68.0,64.7,97,93,80,29.75,29.62,6,1,13,0.00
2013-7-2,82.8,72.2,69.6,71.8,69.0,67.3,97,90,66,29.89,29.74,7,2,17,0.07
2013-7-3,69.6,69.2,68.7,68.0,67.4,66.3,95,94,92,29.95,29.88,7,1,15,0.01
2013-10-17,84.6,73.9,64.0,66.7,63.1,59.7,95,71,44,30.49,30.35,8,2,13,0.00
2013-10-18,89.8,77.4,65.3,69.6,64.8,58.6,94,68,38,30.43,30.30,4,1,11,0.13
2013-10-19,89.8,80.9,67.6,69.6,66.4,59.7,80,62,45,30.37,30.25,4,1,14,0.07
2013-10-23,36.5,36.5,36.5,32.7,32.7,32.7,86,86,86,29.93,29.93,3,3,8,0.00